Location: Ferchesar
(52.6477°N, 12.4298°E)
Time: 04:27:09
(UTC+01:00)

Tiros 1 - Pass Details

Date: 05 December 2021
Orbit: 629 x 664 km, 48.4° (Epoch: 21 January)

Event Time Altitude Azimuth Distance (km) Brightness Sun altitude
Rises 00:53:54 0° 274° (W) 2,962 - -58.1°
Reaches altitude 10° 00:57:39 10° 244° (WSW) 2,056 - -57.8°
Maximum altitude 00:59:28 12° 221° (SW) 1,922 - -57.7°
Drops below altitude 10° 01:01:16 10° 199° (SSW) 2,060 - -57.6°
Sets 01:05:02 0° 169° (SSE) 2,973 - -57.3°
